Wetterdaten: Freitag, 16.01.2015
Datum Zeit Temp. A. Feuchte A. Luftdruck Regen Wind Richtung Richtung Sonnenschein ET UV Solar Taupunkt Windchill Windben Empfang
16.01.2015 00:00 -0,5 C 82 % 1010,2 hPa 0,0 l/m 0,0 km/h (0 Bft) S 178 0 min 0,000 mm 0,0 UV-I 0 W/m -3,2 C -0,5 C 0,0 km/h (0 Bft) 0,00 %
16.01.2015 00:15 -0,7 C 82 % 1010,3 hPa 0,0 l/m 0,0 km/h (0 Bft) S 183 0 min 0,000 mm 0,0 UV-I 0 W/m -3,4 C -0,7 C 0,0 km/h (0 Bft) 0,00 %
16.01.2015 00:30 -0,7 C 82 % 1010,5 hPa 0,0 l/m 0,0 km/h (0 Bft) S 183 0 min 0,000 mm 0,0 UV-I 0 W/m -3,4 C -0,7 C 0,0 km/h (0 Bft) 0,00 %
16.01.2015 00:45 -0,8 C 82 % 1010,5 hPa 0,0 l/m 0,0 km/h (0 Bft) S 181 0 min 0,000 mm 0,0 UV-I 0 W/m -3,5 C -0,8 C 0,0 km/h (0 Bft) 0,00 %
16.01.2015 01:00 -1,0 C 82 % 1010,3 hPa 0,0 l/m 0,0 km/h (0 Bft) SW 216 0 min 0,000 mm 0,0 UV-I 0 W/m -3,7 C -1,0 C 0,0 km/h (0 Bft) 0,00 %
16.01.2015 01:15 -1,1 C 82 % 1010,5 hPa 0,0 l/m 0,0 km/h (0 Bft) SW 214 0 min 0,000 mm 0,0 UV-I 0 W/m -3,8 C -1,1 C 0,0 km/h (0 Bft) 0,00 %
16.01.2015 01:30 -1,2 C 83 % 1010,7 hPa 0,0 l/m 0,0 km/h (0 Bft) S-SW 211 0 min 0,000 mm 0,0 UV-I 0 W/m -3,7 C -1,2 C 0,0 km/h (0 Bft) 0,00 %
16.01.2015 01:45 -1,2 C 83 % 1010,8 hPa 0,0 l/m 0,0 km/h (0 Bft) S 186 0 min 0,000 mm 0,0 UV-I 0 W/m -3,7 C -1,2 C 0,0 km/h (0 Bft) 0,00 %
16.01.2015 02:00 -1,4 C 84 % 1010,9 hPa 0,0 l/m 0,0 km/h (0 Bft) S 191 0 min 0,000 mm 0,0 UV-I 0 W/m -3,7 C -1,4 C 0,0 km/h (0 Bft) 0,00 %
16.01.2015 02:15 -1,4 C 83 % 1010,7 hPa 0,0 l/m 0,0 km/h (0 Bft) S 183 0 min 0,000 mm 0,0 UV-I 0 W/m -3,9 C -1,4 C 0,0 km/h (0 Bft) 0,00 %
16.01.2015 02:30 -1,4 C 83 % 1011,0 hPa 0,0 l/m 0,0 km/h (0 Bft) S-SW 210 0 min 0,000 mm 0,0 UV-I 0 W/m -3,9 C -1,4 C 0,0 km/h (0 Bft) 0,00 %
16.01.2015 02:45 -1,4 C 84 % 1011,3 hPa 0,0 l/m 0,0 km/h (0 Bft) SW 218 0 min 0,000 mm 0,0 UV-I 0 W/m -3,7 C -1,4 C 0,0 km/h (0 Bft) 0,00 %
16.01.2015 03:00 -1,7 C 84 % 1011,2 hPa 0,0 l/m 0,0 km/h (0 Bft) SW 215 0 min 0,000 mm 0,0 UV-I 0 W/m -4,0 C -1,7 C 0,0 km/h (0 Bft) 0,00 %
16.01.2015 03:15 -1,8 C 84 % 1011,3 hPa 0,0 l/m 0,0 km/h (0 Bft) S-SW 192 0 min 0,000 mm 0,0 UV-I 0 W/m -4,1 C -1,8 C 0,0 km/h (0 Bft) 0,00 %
16.01.2015 03:30 -2,0 C 84 % 1011,5 hPa 0,0 l/m 0,0 km/h (0 Bft) S-SW 194 0 min 0,000 mm 0,0 UV-I 0 W/m -4,3 C -2,0 C 0,0 km/h (0 Bft) 0,00 %
16.01.2015 03:45 -2,0 C 84 % 1011,5 hPa 0,0 l/m 0,0 km/h (0 Bft) S-SW 210 0 min 0,000 mm 0,0 UV-I 0 W/m -4,3 C -2,0 C 0,0 km/h (0 Bft) 0,00 %
16.01.2015 04:00 -2,0 C 84 % 1011,5 hPa 0,0 l/m 0,0 km/h (0 Bft) S-SW 213 0 min 0,000 mm 0,0 UV-I 0 W/m -4,3 C -2,0 C 0,0 km/h (0 Bft) 0,00 %
16.01.2015 04:15 -2,3 C 84 % 1011,3 hPa 0,0 l/m 0,0 km/h (0 Bft) S 182 0 min 0,000 mm 0,0 UV-I 0 W/m -4,6 C -2,3 C 0,0 km/h (0 Bft) 0,00 %
16.01.2015 04:30 -2,2 C 84 % 1011,4 hPa 0,0 l/m 0,0 km/h (0 Bft) S-SW 197 0 min 0,000 mm 0,0 UV-I 0 W/m -4,5 C -2,2 C 0,0 km/h (0 Bft) 0,00 %
16.01.2015 04:45 -2,2 C 84 % 1011,5 hPa 0,0 l/m 0,0 km/h (0 Bft) SW 225 0 min 0,000 mm 0,0 UV-I 0 W/m -4,5 C -2,2 C 0,0 km/h (0 Bft) 0,00 %
16.01.2015 05:00 -1,9 C 83 % 1011,3 hPa 0,0 l/m 0,0 km/h (0 Bft) SO 132 0 min 0,000 mm 0,0 UV-I 0 W/m -4,4 C -1,9 C 0,0 km/h (0 Bft) 0,00 %
16.01.2015 05:15 -0,7 C 84 % 1011,0 hPa 0,0 l/m 0,4 km/h (0 Bft) S-SO 155 0 min 0,000 mm 0,0 UV-I 0 W/m -3,1 C -0,7 C 4,0 km/h (1 Bft) 0,00 %
16.01.2015 05:30 -1,0 C 84 % 1011,4 hPa 0,0 l/m 0,4 km/h (0 Bft) O-SO 108 0 min 0,000 mm 0,0 UV-I 0 W/m -3,4 C -1,0 C 4,0 km/h (1 Bft) 0,00 %
16.01.2015 05:45 -0,9 C 84 % 1011,4 hPa 0,0 l/m 0,0 km/h (0 Bft) S-SW 201 0 min 0,000 mm 0,0 UV-I 0 W/m -3,3 C -0,9 C 0,0 km/h (0 Bft) 0,00 %
16.01.2015 06:00 -0,7 C 84 % 1011,3 hPa 0,0 l/m 2,9 km/h (1 Bft) O-SO 109 0 min 0,000 mm 0,0 UV-I 0 W/m -3,1 C -0,7 C 4,0 km/h (1 Bft) 0,00 %
16.01.2015 06:15 -0,5 C 83 % 1011,3 hPa 0,0 l/m 1,8 km/h (1 Bft) O-SO 118 0 min 0,000 mm 0,0 UV-I 0 W/m -3,0 C -0,5 C 4,0 km/h (1 Bft) 0,00 %
16.01.2015 06:30 -0,2 C 83 % 1011,4 hPa 0,0 l/m 3,2 km/h (1 Bft) SO 131 0 min 0,000 mm 0,0 UV-I 0 W/m -2,7 C -0,2 C 7,9 km/h (2 Bft) 0,00 %
16.01.2015 06:45 -0,2 C 83 % 1011,1 hPa 0,0 l/m 6,8 km/h (2 Bft) S-SO 152 0 min 0,000 mm 0,0 UV-I 0 W/m -2,7 C -0,6 C 11,9 km/h (2 Bft) 0,00 %
16.01.2015 07:00 0,0 C 84 % 1011,0 hPa 0,0 l/m 7,9 km/h (2 Bft) O-SO 103 0 min 0,000 mm 0,0 UV-I 0 W/m -2,4 C -1,5 C 11,9 km/h (2 Bft) 0,00 %
16.01.2015 07:15 0,1 C 84 % 1011,0 hPa 0,0 l/m 4,0 km/h (1 Bft) SO 124 0 min 0,000 mm 0,0 UV-I 0 W/m -2,3 C 0,1 C 7,9 km/h (2 Bft) 0,00 %
16.01.2015 07:30 0,0 C 84 % 1011,0 hPa 0,0 l/m 0,0 km/h (0 Bft) SW 216 0 min 0,000 mm 0,0 UV-I 0 W/m -2,4 C 0,0 C 0,0 km/h (0 Bft) 0,00 %
16.01.2015 07:45 0,0 C 84 % 1011,1 hPa 0,0 l/m 2,9 km/h (1 Bft) O-SO 113 0 min 0,000 mm 0,0 UV-I 0 W/m -2,4 C 0,0 C 4,0 km/h (1 Bft) 0,00 %
16.01.2015 08:00 0,1 C 84 % 1011,1 hPa 0,0 l/m 2,2 km/h (1 Bft) O-SO 107 0 min 0,000 mm 0,0 UV-I 0 W/m -2,3 C 0,1 C 4,0 km/h (1 Bft) 0,00 %
16.01.2015 08:15 -0,1 C 84 % 1011,3 hPa 0,0 l/m 4,7 km/h (1 Bft) O 91 0 min 0,000 mm 0,0 UV-I 0 W/m -2,5 C -0,1 C 7,9 km/h (2 Bft) 0,00 %
16.01.2015 08:30 -0,1 C 84 % 1011,1 hPa 0,0 l/m 3,2 km/h (1 Bft) O 87 0 min 0,000 mm 0,0 UV-I 3 W/m -2,5 C -0,1 C 7,9 km/h (2 Bft) 0,00 %
16.01.2015 08:45 -0,1 C 84 % 1011,4 hPa 0,0 l/m 2,2 km/h (1 Bft) O-SO 102 0 min 0,000 mm 0,0 UV-I 9 W/m -2,5 C -0,1 C 4,0 km/h (1 Bft) 0,00 %
16.01.2015 09:00 0,0 C 84 % 1010,9 hPa 0,0 l/m 9,0 km/h (2 Bft) O-SO 120 0 min 0,000 mm 0,0 UV-I 21 W/m -2,4 C -2,6 C 11,9 km/h (2 Bft) 0,00 %
16.01.2015 09:15 0,1 C 84 % 1011,1 hPa 0,0 l/m 2,9 km/h (1 Bft) S-SO 165 0 min 0,000 mm 0,0 UV-I 29 W/m -2,3 C 0,1 C 7,9 km/h (2 Bft) 0,00 %
16.01.2015 09:30 0,1 C 84 % 1011,1 hPa 0,0 l/m 13,0 km/h (3 Bft) O-SO 112 0 min 0,000 mm 1,0 UV-I 30 W/m -2,3 C -5,6 C 19,8 km/h (3 Bft) 0,00 %
16.01.2015 09:45 0,2 C 84 % 1011,2 hPa 0,0 l/m 6,8 km/h (2 Bft) O-SO 103 0 min 0,000 mm 1,0 UV-I 46 W/m -2,2 C -0,2 C 7,9 km/h (2 Bft) 0,00 %
16.01.2015 10:00 0,2 C 84 % 1011,3 hPa 0,0 l/m 6,8 km/h (2 Bft) O 95 0 min 0,000 mm 1,0 UV-I 49 W/m -2,2 C -0,2 C 11,9 km/h (2 Bft) 0,00 %
16.01.2015 10:15 0,3 C 84 % 1011,1 hPa 0,0 l/m 0,4 km/h (0 Bft) N-NO 33 0 min 0,000 mm 1,0 UV-I 52 W/m -2,1 C 0,3 C 4,0 km/h (1 Bft) 0,00 %
16.01.2015 10:30 0,4 C 84 % 1011,0 hPa 0,0 l/m 0,7 km/h (0 Bft) S-SO 158 0 min 0,000 mm 1,0 UV-I 67 W/m -2,0 C 0,4 C 4,0 km/h (1 Bft) 0,00 %
16.01.2015 10:45 0,6 C 83 % 1011,0 hPa 0,0 l/m 0,0 km/h (0 Bft) O-SO 117 0 min 0,000 mm 1,0 UV-I 75 W/m -1,9 C 0,6 C 0,0 km/h (0 Bft) 0,00 %
16.01.2015 11:00 0,8 C 83 % 1010,9 hPa 0,0 l/m 0,0 km/h (0 Bft) S 173 15 min 0,000 mm 1,0 UV-I 189 W/m -1,8 C 0,8 C 0,0 km/h (0 Bft) 0,00 %
16.01.2015 11:15 1,0 C 83 % 1010,9 hPa 0,0 l/m 3,2 km/h (1 Bft) SO 132 15 min 0,000 mm 1,0 UV-I 199 W/m -1,6 C 1,0 C 7,9 km/h (2 Bft) 0,00 %
16.01.2015 11:30 1,2 C 82 % 1010,5 hPa 0,0 l/m 0,4 km/h (0 Bft) O-NO 57 15 min 0,000 mm 1,0 UV-I 200 W/m -1,5 C 1,2 C 4,0 km/h (1 Bft) 0,00 %
16.01.2015 11:45 1,7 C 80 % 1010,2 hPa 0,0 l/m 4,7 km/h (1 Bft) O-NO 67 15 min 0,000 mm 1,0 UV-I 205 W/m -1,4 C 1,7 C 7,9 km/h (2 Bft) 0,00 %
16.01.2015 12:00 2,0 C 79 % 1009,5 hPa 0,0 l/m 9,4 km/h (2 Bft) O 89 15 min 0,000 mm 2,0 UV-I 210 W/m -1,2 C -0,8 C 11,9 km/h (2 Bft) 0,00 %
16.01.2015 12:15 2,6 C 82 % 1009,2 hPa 0,0 l/m 9,0 km/h (2 Bft) O 93 15 min 0,000 mm 2,0 UV-I 205 W/m -0,2 C 0,2 C 11,9 km/h (2 Bft) 0,00 %
16.01.2015 12:30 3,0 C 82 % 1009,2 hPa 0,0 l/m 0,0 km/h (0 Bft) S 176 0 min 0,000 mm 1,0 UV-I 199 W/m 0,2 C 3,0 C 0,0 km/h (0 Bft) 0,00 %
16.01.2015 12:45 3,4 C 79 % 1008,9 hPa 0,0 l/m 2,2 km/h (1 Bft) S 171 0 min 0,000 mm 1,0 UV-I 95 W/m 0,1 C 3,4 C 4,0 km/h (1 Bft) 0,00 %
16.01.2015 13:00 3,5 C 79 % 1008,4 hPa 0,0 l/m 2,9 km/h (1 Bft) NO 56 0 min 0,000 mm 1,0 UV-I 117 W/m 0,2 C 3,5 C 7,9 km/h (2 Bft) 0,00 %
16.01.2015 13:15 4,4 C 75 % 1008,0 hPa 0,0 l/m 4,3 km/h (1 Bft) O 101 0 min 0,000 mm 1,0 UV-I 119 W/m 0,4 C 4,4 C 7,9 km/h (2 Bft) 0,00 %
16.01.2015 13:30 4,9 C 72 % 1008,0 hPa 0,0 l/m 10,8 km/h (2 Bft) O 89 0 min 0,000 mm 1,0 UV-I 112 W/m 0,3 C 1,4 C 11,9 km/h (2 Bft) 0,00 %
16.01.2015 13:45 4,8 C 72 % 1008,0 hPa 0,0 l/m 8,3 km/h (2 Bft) O 94 0 min 0,000 mm 1,0 UV-I 88 W/m 0,2 C 3,1 C 11,9 km/h (2 Bft) 0,00 %
16.01.2015 14:00 4,7 C 72 % 1007,8 hPa 0,0 l/m 0,7 km/h (0 Bft) SO 136 0 min 0,000 mm 1,0 UV-I 99 W/m 0,1 C 4,7 C 4,0 km/h (1 Bft) 0,00 %
16.01.2015 14:15 5,1 C 72 % 1007,3 hPa 0,0 l/m 8,3 km/h (2 Bft) O 93 0 min 0,000 mm 1,0 UV-I 131 W/m 0,5 C 3,5 C 11,9 km/h (2 Bft) 0,00 %
16.01.2015 14:30 5,1 C 72 % 1007,5 hPa 0,0 l/m 11,5 km/h (2 Bft) O-SO 104 0 min 0,000 mm 1,0 UV-I 109 W/m 0,5 C 1,2 C 11,9 km/h (2 Bft) 0,00 %
16.01.2015 14:45 4,7 C 74 % 1007,7 hPa 0,0 l/m 2,2 km/h (1 Bft) SO 132 0 min 0,000 mm 1,0 UV-I 59 W/m 0,5 C 4,7 C 4,0 km/h (1 Bft) 0,00 %
16.01.2015 15:00 4,6 C 75 % 1007,5 hPa 0,0 l/m 1,8 km/h (1 Bft) O 84 0 min 0,000 mm 1,0 UV-I 77 W/m 0,6 C 4,6 C 4,0 km/h (1 Bft) 0,00 %
16.01.2015 15:15 4,6 C 75 % 1007,4 hPa 0,0 l/m 4,0 km/h (1 Bft) O-SO 113 0 min 0,000 mm 1,0 UV-I 86 W/m 0,6 C 4,6 C 7,9 km/h (2 Bft) 0,00 %
16.01.2015 15:30 4,7 C 75 % 1007,3 hPa 0,0 l/m 5,4 km/h (1 Bft) O 99 0 min 0,000 mm 1,0 UV-I 74 W/m 0,7 C 4,7 C 7,9 km/h (2 Bft) 0,00 %
16.01.2015 15:45 4,4 C 76 % 1007,3 hPa 0,0 l/m 0,7 km/h (0 Bft) SO 133 0 min 0,000 mm 0,0 UV-I 41 W/m 0,5 C 4,4 C 4,0 km/h (1 Bft) 0,00 %
16.01.2015 16:00 4,0 C 78 % 1007,2 hPa 0,0 l/m 2,2 km/h (1 Bft) O-SO 123 0 min 0,000 mm 0,0 UV-I 25 W/m 0,5 C 4,0 C 4,0 km/h (1 Bft) 0,00 %
16.01.2015 16:15 3,5 C 79 % 1007,3 hPa 0,0 l/m 4,7 km/h (1 Bft) O 96 0 min 0,000 mm 0,0 UV-I 6 W/m 0,2 C 3,5 C 7,9 km/h (2 Bft) 0,00 %
16.01.2015 16:30 3,3 C 79 % 1007,4 hPa 0,0 l/m 7,2 km/h (2 Bft) SO 133 0 min 0,000 mm 0,0 UV-I 0 W/m 0,0 C 2,5 C 7,9 km/h (2 Bft) 0,00 %
16.01.2015 16:45 3,0 C 79 % 1007,3 hPa 0,0 l/m 0,4 km/h (0 Bft) S-SO 164 0 min 0,000 mm 0,0 UV-I 0 W/m -0,3 C 3,0 C 4,0 km/h (1 Bft) 0,00 %
16.01.2015 17:00 2,6 C 81 % 1007,4 hPa 0,0 l/m 0,0 km/h (0 Bft) SO 130 0 min 0,000 mm 0,0 UV-I 0 W/m -0,3 C 2,6 C 0,0 km/h (0 Bft) 0,00 %
16.01.2015 17:15 2,6 C 80 % 1007,5 hPa 0,0 l/m 2,2 km/h (1 Bft) O-SO 102 0 min 0,000 mm 0,0 UV-I 0 W/m -0,5 C 2,6 C 4,0 km/h (1 Bft) 0,00 %
16.01.2015 17:30 2,5 C 80 % 1007,2 hPa 0,0 l/m 7,2 km/h (2 Bft) O-SO 113 0 min 0,000 mm 0,0 UV-I 0 W/m -0,6 C 1,7 C 11,9 km/h (2 Bft) 0,00 %
16.01.2015 17:45 2,3 C 77 % 1007,1 hPa 0,0 l/m 4,3 km/h (1 Bft) O 89 0 min 0,000 mm 0,0 UV-I 0 W/m -1,3 C 2,3 C 7,9 km/h (2 Bft) 0,00 %
16.01.2015 18:00 2,2 C 77 % 1007,0 hPa 0,0 l/m 7,2 km/h (2 Bft) O-NO 74 0 min 0,000 mm 0,0 UV-I 0 W/m -1,4 C 1,4 C 11,9 km/h (2 Bft) 0,00 %
16.01.2015 18:15 2,0 C 78 % 1006,8 hPa 0,0 l/m 8,3 km/h (2 Bft) O-SO 120 0 min 0,000 mm 0,0 UV-I 0 W/m -1,4 C 0,2 C 11,9 km/h (2 Bft) 0,00 %
16.01.2015 18:30 1,9 C 78 % 1007,1 hPa 0,0 l/m 2,2 km/h (1 Bft) O-SO 104 0 min 0,000 mm 0,0 UV-I 0 W/m -1,5 C 1,9 C 4,0 km/h (1 Bft) 0,00 %
16.01.2015 18:45 1,8 C 78 % 1007,0 hPa 0,0 l/m 2,2 km/h (1 Bft) O-SO 111 0 min 0,000 mm 0,0 UV-I 0 W/m -1,6 C 1,8 C 4,0 km/h (1 Bft) 0,00 %
16.01.2015 19:00 1,7 C 78 % 1006,9 hPa 0,0 l/m 4,7 km/h (1 Bft) O 94 0 min 0,000 mm 0,0 UV-I 0 W/m -1,7 C 1,7 C 7,9 km/h (2 Bft) 0,00 %
16.01.2015 19:15 1,5 C 78 % 1006,7 hPa 0,0 l/m 0,7 km/h (0 Bft) O-SO 118 0 min 0,000 mm 0,0 UV-I 0 W/m -1,9 C 1,5 C 4,0 km/h (1 Bft) 0,00 %
16.01.2015 19:30 1,4 C 80 % 1007,1 hPa 0,0 l/m 1,4 km/h (1 Bft) O-SO 106 0 min 0,000 mm 0,0 UV-I 0 W/m -1,7 C 1,4 C 4,0 km/h (1 Bft) 0,00 %
16.01.2015 19:45 1,3 C 80 % 1007,0 hPa 0,0 l/m 0,0 km/h (0 Bft) W-SW 253 0 min 0,000 mm 0,0 UV-I 0 W/m -1,8 C 1,3 C 0,0 km/h (0 Bft) 0,00 %
16.01.2015 20:00 1,2 C 80 % 1006,8 hPa 0,0 l/m 3,2 km/h (1 Bft) O-SO 103 0 min 0,000 mm 0,0 UV-I 0 W/m -1,9 C 1,2 C 4,0 km/h (1 Bft) 0,00 %
16.01.2015 20:15 1,3 C 80 % 1006,8 hPa 0,0 l/m 1,8 km/h (1 Bft) SO 133 0 min 0,000 mm 0,0 UV-I 0 W/m -1,8 C 1,3 C 4,0 km/h (1 Bft) 0,00 %
16.01.2015 20:30 1,3 C 80 % 1006,3 hPa 0,0 l/m 1,8 km/h (1 Bft) O-SO 103 0 min 0,000 mm 0,0 UV-I 0 W/m -1,8 C 1,3 C 4,0 km/h (1 Bft) 0,00 %
16.01.2015 20:45 1,2 C 80 % 1006,6 hPa 0,0 l/m 0,0 km/h (0 Bft) S-SW 192 0 min 0,000 mm 0,0 UV-I 0 W/m -1,9 C 1,2 C 0,0 km/h (0 Bft) 0,00 %
16.01.2015 21:00 1,1 C 80 % 1006,5 hPa 0,0 l/m 2,2 km/h (1 Bft) O-SO 102 0 min 0,000 mm 0,0 UV-I 0 W/m -2,0 C 1,1 C 4,0 km/h (1 Bft) 0,00 %
16.01.2015 21:15 1,1 C 81 % 1006,1 hPa 0,0 l/m 0,4 km/h (0 Bft) S 183 0 min 0,000 mm 0,0 UV-I 0 W/m -1,8 C 1,1 C 4,0 km/h (1 Bft) 0,00 %
16.01.2015 21:30 1,1 C 81 % 1005,9 hPa 0,0 l/m 0,4 km/h (0 Bft) O 85 0 min 0,000 mm 0,0 UV-I 0 W/m -1,8 C 1,1 C 4,0 km/h (1 Bft) 0,00 %
16.01.2015 21:45 1,0 C 81 % 1005,9 hPa 0,0 l/m 0,0 km/h (0 Bft) S 175 0 min 0,000 mm 0,0 UV-I 0 W/m -1,9 C 1,0 C 0,0 km/h (0 Bft) 0,00 %
16.01.2015 22:00 1,0 C 81 % 1006,0 hPa 0,0 l/m 0,0 km/h (0 Bft) S 190 0 min 0,000 mm 0,0 UV-I 0 W/m -1,9 C 1,0 C 0,0 km/h (0 Bft) 0,00 %
16.01.2015 22:15 0,9 C 81 % 1005,7 hPa 0,0 l/m 0,0 km/h (0 Bft) S 179 0 min 0,000 mm 0,0 UV-I 0 W/m -2,0 C 0,9 C 0,0 km/h (0 Bft) 0,00 %
16.01.2015 22:30 0,9 C 81 % 1006,1 hPa 0,0 l/m 0,0 km/h (0 Bft) SO 132 0 min 0,000 mm 0,0 UV-I 0 W/m -2,0 C 0,9 C 0,0 km/h (0 Bft) 0,00 %
16.01.2015 22:45 0,7 C 81 % 1005,4 hPa 0,0 l/m 0,7 km/h (0 Bft) O-SO 122 0 min 0,000 mm 0,0 UV-I 0 W/m -2,2 C 0,7 C 4,0 km/h (1 Bft) 0,00 %
16.01.2015 23:00 0,6 C 81 % 1005,7 hPa 0,0 l/m 0,0 km/h (0 Bft) SW 225 0 min 0,000 mm 0,0 UV-I 0 W/m -2,3 C 0,6 C 0,0 km/h (0 Bft) 0,00 %
16.01.2015 23:15 0,6 C 81 % 1005,5 hPa 0,0 l/m 0,0 km/h (0 Bft) S-SW 194 0 min 0,000 mm 0,0 UV-I 0 W/m -2,3 C 0,6 C 0,0 km/h (0 Bft) 0,00 %
16.01.2015 23:30 0,6 C 81 % 1005,7 hPa 0,0 l/m 0,0 km/h (0 Bft) W-SW 252 0 min 0,000 mm 0,0 UV-I 0 W/m -2,3 C 0,6 C 0,0 km/h (0 Bft) 0,00 %
16.01.2015 23:45 0,5 C 81 % 1005,8 hPa 0,0 l/m 0,0 km/h (0 Bft) W-SW 237 0 min 0,000 mm 0,0 UV-I 0 W/m -2,4 C 0,5 C 0,0 km/h (0 Bft) 0,00 %
_ Min-Zeit 04:15 13:30 22:45 - 00:00 - - - - - - 04:15 09:30 00:00 00:00
Minimum _ -2,3 C 72 % 1005,4 hPa - 0,0 km/h (0 Bft) - - - - - - -4,6 C -5,6 C 0,0 km/h (0 Bft) 0,00 %
_ Max-Zeit 14:15 02:00 03:30 00:00 09:30 - - 11:00 00:00 12:00 12:00 15:30 14:00 09:30 00:00
Maximum _ 5,1 C 84 % 1011,5 hPa 0,0 l/m 13,0 km/h
O-SO (3 Bft)
- - 15 min 0,000 mm 2,0 UV-I 210 W/m 0,7 C 4,7 C 19,8 km/h
O-SO (3 Bft)
0,00 %
Durchschnitt _ 1,0 C 81 % 1009,0 hPa #0,0 l/m 2,5 km/h (1 Bft) O-SO - #1:30 h #0,000 mm 1,1 UV-I 95 W/m -2,0 C 0,6 C 4,4 km/h (1 Bft) 0,00 %